weather.gov     
National Weather Service

Regional Weather Roundup
NWS Homepage
This page is being discontinued on March 12, 2014.
The same data is available at this site. Please update your bookmarks.
Thank you, and we apologize for the inconvenience.
Please send an email to SR-SRH.Webmaster@noaa.gov with any concerns.


Current Version
Previous Version:    01  02  03  04  05  06  07  08  09  10  11  12  13  14  15  16  17  18  19  20  21  22  23  24  25  26  27  28  29  30  
   31  32  33  34  35  36  37  38  39  40  41  42  43  44  45  46  47  48  49  50  51  52  53  54  55  56  57  58  59  60  
[Printable]
550
ASCA44 KEWX 222320
RWRMX

LATIN AMERICA AND CARIBBEAN REGIONAL WEATHER ROUNDUP
NATIONAL WEATHER SERVICE AUSTIN/SAN ANTONIO TX
500 PM CST MON DEC 22 2014

NOTE: "FAIR" INDICATED FEW OR NO CLOUDS BELOW 12,000 FEET WITH NO
SIGNIFICANT WEATHER AND/OR OBSTRUCTIONS TO VISIBILITY.

BAJA CALIFORNIA

CITY           SKY/WX    TMP DP  RH WIND       PRES   REMARKS
LORETO         MOSUNNY   75  64  69 N17       29.86S
LA PAZ         MOSUNNY   75  55  50 N9        29.89
MEXICALI       SUNNY     77  45  31 W5        29.90
S.J. DEL CABO  SUNNY     75  61  60 SE17      29.85F
TIJUANA        SUNNY     70  50  49 NW14      29.98S

NORTHWESTERN MEXICO

CITY           SKY/WX    TMP DP  RH WIND       PRES   REMARKS
CULIACAN       PTSUNNY   84  59  42 W7        29.84
DURANGO        SUNNY     73  10   9 SW15      29.94F
GUAYMAS        SUNNY     75  55  50 S12       29.82
HERMOSILLO     SUNNY     79  39  24 S6        29.89
CD. JUAREZ     MOSUNNY   66  36  32 W15       29.69
LOS MOCHIS     MOSUNNY   75  43  31 NW17      29.85F
OBREGON        MOSUNNY   79  39  24 W6        29.83

NORTHEASTERN MEXICO

CITY           SKY/WX    TMP DP  RH WIND       PRES   REMARKS
CHIHUAHUA      MOSUNNY   68  28  22 E7        29.81
MATAMOROS      MOCLDY    73  68  83 S9        29.68
MONCLOVA         N/A    N/A N/A N/A MISG        N/A
MONTERREY      MOCLDY    77  52  41 S6        29.64F
NUEVO LAREDO   PTCLDY    82  57  42 CALM      29.63
PIEDRAS NEGRAS MOCLDY    68  54  60 E7        29.63
REYNOSA        PTCLDY    75  61  60 CALM      29.63
SALTILLO       PTSUNNY   70  50  49 CALM      29.85F
TORREON        MOSUNNY   77  23  13 NE5       29.78F
CD. VICTORIA   PTSUNNY   73  61  64 S9        29.66

WESTERN MEXICO

CITY           SKY/WX    TMP DP  RH WIND       PRES   REMARKS
AGUASCALIENTES MOSUNNY   70  12  11 SW16      30.03
COLIMA         CLOUDY    75  63  64 CALM      29.88F
DEL BAJIO      PTSUNNY   72  27  18 W12       30.09S
GUADALAJARA    PTSUNNY   73  37  27 NW7       29.99
MANZANILLO     PTSUNNY   81  73  78 W6        29.73F
MAZATLAN       SUNNY     75  61  60 W14       29.81S
P. VALLARTA    PTSUNNY   79  68  69 SW8       29.79F
URUAPAN        CLOUDY    63  55  77 CALM      30.03S
ZACATECAS      MOSUNNY   70  14  11 SW23      30.02F

CENTRAL MEXICO

CITY           SKY/WX    TMP DP  RH WIND       PRES   REMARKS
CUERNAVACA     CLOUDY    73  43  33 CALM      29.95S
MEXICO CITY    CLOUDY    64  36  34 SE14      30.10S
MORELIA        CLOUDY    66  45  45 S13       30.03
POZA RICA      CLOUDY    75  64  69 CALM      29.69F
PUEBLA         CLOUDY    61  37  41 S7        30.12S
QUERETARO      PTSUNNY   68  32  26 W14       30.07S
S. LUIS POTOSI MOSUNNY   73   9   8 SW18      29.96F
TAMPICO        PTSUNNY   75  66  73 SE13      29.65F
TOLUCA         CLOUDY    59  27  29 S14       30.17R

SOUTHERN MEXICO

CITY           SKY/WX    TMP DP  RH WIND       PRES   REMARKS
ACAPULCO       CLOUDY    81  72  74 W8        29.75S
B. DE HUATULCO CLOUDY    82  70  65 W13       29.77
OAXACA         CLOUDY    77  39  25 S10       29.98S
P. ESCONDIDO   PTSUNNY   82  72  69 W12       29.90F
VERACRUZ       CLOUDY    77  70  78 SE5       29.69F
ZIHUATANEJO    CLOUDY    81  72  74 NW12      29.76F

YUCATAN PENINSULA

CITY           SKY/WX    TMP DP  RH WIND       PRES   REMARKS
CAMPECHE       PTCLDY    86  72  62 E6        29.74R HX  92
CANCUN         PTCLDY    77  72  83 SE14      29.84F
CHETUMAL       PTCLDY    81  70  69 E7        29.79R
CD. DEL CARMEN MOCLDY    86  68  54 E9        29.73
COZUMEL        PTCLDY    73  72  94 SE7       29.84F
MERIDA         MOCLDY    86  66  51 SE9       29.78R
MINATITLAN     CLEAR     79  68  69 N12       29.67
TAPACHULA      CLEAR     82  73  74 SW7       29.76S
TUX. GUTIERREZ PTCLDY    88  61  40 NE3       29.74F
VILLAHERMOSA   PTCLDY    81  72  74 NE7       29.74S

CENTRAL AMERICA

CITY           SKY/WX    TMP DP  RH WIND       PRES   REMARKS
BELIZE CITY    PTCLDY    81  75  83 SE3       29.79R
MANAGUA        PTCLDY    86  66  51 SE9       29.74R

CARIBBEAN

CITY           SKY/WX    TMP DP  RH WIND       PRES   REMARKS
ARUBA          PTCLDY    82  72  69 E21       29.83S
CURACAO        PTCLDY    81  72  74 E16       29.89R
KINGSTON       PTCLDY    82  70  65 SE22      29.89S
NASSAU         MOCLDY    75  70  83 SE7       29.99R
SAN JUAN       PTCLDY    79  73  83 E7        30.00R
SANTO DOMINGO  PTCLDY    79  72  78 NE6       29.97R
ST. CROIX      PTCLDY    79  72  78 NE8       30.00
ST. KITTS      PTCLDY    79  73  83 NE15      30.00R
ST. MAARTEN    PTCLDY    79  70  73 E10       30.00S

$$





U.S. Dept. of Commerce
NOAA National Weather Service
1325 East West Highway
Silver Spring, MD 20910
E-mail: w-nws.webmaster@noaa.gov
Page last modified: May 16, 2007
NATIONAL WEATHER SERVICE: for Safety, for Work, for Fun - FOR LIFE